Regional Weather Roundup
Issued by NWS

Home | Current Version | Previous Version | Text Only | Print | Product List | Glossary On
Versions: 1 2 3 4 5 6 7 8 9 10 11 12 13 14 15 16 17 18 19 20 21 22 23 24 25 26 27 28 29 30 31 32 33 34 35 36 37 38 39 40 41 42 43 44 45 46 47 48 49 50
000
ASUS44 KLUB 301010
RWRTX
WEST TEXAS WEATHER ROUNDUP
NATIONAL WEATHER SERVICE LUBBOCK TX
500 AM CDT SAT JUL 30 2016

NOTE: "FAIR" INDICATES FEW OR NO CLOUDS BELOW 12,000 FEET WITH NO
SIGNIFICANT WEATHER AND/OR OBSTRUCTIONS TO VISIBILITY.

TXZ004-006>008-010-012-014-016-OKZ002-301100-
TEXAS PANHANDLE/OKLAHOMA PANHANDLE

CITY           SKY/WX    TMP DP  RH WIND       PRES   REMARKS
AMARILLO       CLOUDY    71  57  61 S22G29    30.05F
BORGER         CLOUDY    74  56  53 CALM      30.05F
CANADIAN       MOCLDY    71  66  82 CALM      30.03S
DALHART        CLEAR     65  57  75 W10       30.10F
DUMAS          PTCLDY    64  57  80 NE7       30.07S
GUYMON         CLEAR     65  62  90 NW9       30.05S
HEREFORD       CLOUDY    66  64  91 SE3       30.09F
PAMPA          PTCLDY    68  60  76 S6        30.08S
PERRYTON       MOCLDY    69  63  81 S8        30.04F
$$

TXZ026-029-035-045-048-301100-
SOUTHERN PANHANDLE/SOUTH PLAINS/ROLLING PLAINS

CITY           SKY/WX    TMP DP  RH WIND       PRES   REMARKS
CHILDRESS      TSTM      73  69  87 N7        30.04R
SEMINOLE       CLEAR     73  63  70 S5        30.10F
LUBBOCK        CLOUDY    71  60  68 NE3       30.08F
PLAINVIEW      CLOUDY    68  60  76 NE5       30.06F
SNYDER           N/A     73  62  67 S5        30.06R
$$

TXZ052-054-060>062-072-078-127-140-154-169-301100-
PERMIAN BASIN/CONCHO VALLEY/BIG COUNTRY/EDWARDS PLATEAU

CITY           SKY/WX    TMP DP  RH WIND       PRES   REMARKS
ABILENE        CLEAR     78  63  59 S12       30.02R
BIG SPRING     CLEAR     75  64  68 S9        30.09R
BROWNWOOD      PTCLDY    75  66  73 SE3       30.02S
JUNCTION       CLOUDY    77  69  76 SE3       30.02F
MIDLAND        CLEAR     76  65  68 S8        30.06S
ODESSA         CLEAR     77  65  66 S8        30.08S
SAN ANGELO     CLEAR     76  67  73 SW6       30.03R
SONORA         PTCLDY    75  68  78 CALM      30.09S
SWEETWATER     CLEAR     77  63  61 S14       30.07S
WINK           CLEAR     74  63  68 SE7       30.04S
$$

TXZ055-058-074-075-080-082-301100-
FAR WEST/SOUTHWEST MOUNTAINS/TRANS PECOS

CITY           SKY/WX    TMP DP  RH WIND       PRES   REMARKS
ALPINE         CLEAR     65  59  82 W6        30.19F
DRYDEN           N/A     74  66  76 NE5       30.01S
EL PASO        CLOUDY    78  61  55 SE9       30.06R
FORT STOCKTON  CLEAR     73  63  70 SE5       30.06S
GUADALUPE PASS CLEAR     68  57  68 E6        30.21S
MARFA          CLEAR     58  57  97 N7        30.18S
PECOS          CLEAR     73  62  68 E7        30.04S
PRESIDIO       FAIR      74  61  63 N5        30.03S
$$

TXZ014-016-019-021>030-083-301100
TEXAS TECH WEST TEXAS MESONET/TEXAS PANHANDLE/NORTHERN SOUTH PLAINS

CITY           SKY/WX    TMP DP  RH WIND       PRES   REMARKS
ABERNATHY 5ENE   N/A     67  63  86 E6        30.10F
AMARILLO 9NNE    N/A     68  57  68 S12       30.05R
AMARILLO 7SSE    N/A     66  60  82 E5        30.09R
AMHERST 1NE      N/A     67  59  74 SE10      30.06F
BOOTLEG 11WNW    N/A     60  57  91 E7        30.16S
CANADIAN 6E      N/A     70  65  84 SE7       30.03S
CAPROCK CYN SP   N/A     69  67  95 S5        30.07S
CHILDRESS 2NNE HVY RAIN  72  68  88 NW9       30.03F
CLARENDON 2WSW   N/A     69  63  83 W3        30.06F
DIMMITT 2NE      N/A     65  61  87 NE10      30.09F
FLOYDADA 2NNE    N/A     66  60  81 NW3       30.09S
FRIONA 2NE       N/A     63  59  88 NE6       30.12S
GOODLETT 3W    HVY RAIN  75  69  81 N9        30.02R
HART 3N          N/A     65  61  84 NE7       30.08F
HEREFORD 2NW     N/A     65  58  79 E2        30.12F
MCLEAN 1E        N/A     68  60  76 W3        30.08R
MEMPHIS 1NE      N/A     71  68  91 S12       30.04R
MULESHOE 2SSW    N/A     67  61  79 S5        30.08R
OLTON 6S         N/A     68  60  76 E12       30.07F
PALO DURO SP     N/A     66  61  84 S8        30.09F
PAMPA 2E         N/A     67  60  79 SE7       30.09S
PLAINVIEW 1S     N/A     72  60  65 NE6       30.08F
SILVERTON 7ESE   N/A     68  60  75 N2        30.07F
TULIA 2ENE       N/A     66  62  86 E7        30.09F
TURKEY 2WSW      N/A     70  67  90 E1        30.06R
UMBARGER 3NNE    N/A     67  62  85 S9        30.10F
$$

TXZ033>036-039>041-045>048-301100
TEXAS TECH WEST TEXAS MESONET/SOUTH PLAINS

CITY           SKY/WX    TMP DP  RH WIND       PRES   REMARKS
AIKEN 3WSW       N/A     67  64  91 E7        30.10F
ANDREWS 2NE      N/A     74  63  68 S5        30.11S
ANTON 6SSW       N/A     68  60  75 SE9       30.08F
BROWNFIELD 2S    N/A     70  57  64 NE3       30.12F
DENVR CTY 7WNW   N/A     69  56  61 E7        30.14F
GAIL 2ESE        N/A     73  63  69 W2        30.07S
LAMESA 2SE       N/A     73  63  70 NW3       30.10S
LEVELLAND 4S     N/A     68  58  69 SE6       30.11F
LUBBOCK 3WNW     N/A     70  58  64 E2        30.09F
MORTON 1ENE      N/A     68  61  77 SE6       30.11F
ODONNELL 1N      N/A     72  57  59 N5        30.11F
PLAINS 3N        N/A     68  56  65 SE10      30.13F
RALLS 1SE        N/A     70  60  70 N6        30.10F
REESE CENTER     N/A     69  58  69 E6        30.10F
SEAGRAVES 1SW    N/A     73  58  57 NE7       30.12F
SEMINOLE 2NNE    N/A     75  62  64 W2G8      30.11S
SLATON 2NE       N/A     71  59  64 N3        30.10F
SNYDER 3E        N/A     74  62  65 S8        30.06R
SUNDOWN 8SW      N/A     66  57  72 E6        30.12F
TAHOKA 3NNE      N/A     69  59  70 NW3       30.10F
WOLFFORTH 6SSW   N/A     67  59  73 E6        30.10F
$$

TXZ031-032-036>038-042>044-301100-
TEXAS TECH WEST TEXAS MESONET/ROLLING PLAINS

CITY           SKY/WX    TMP DP  RH WIND       PRES   REMARKS
ASPERMONT 3NE    N/A     76  61  58 S6        30.01R
FLUVANNA 3WNW    N/A     73  60  62 W5        30.09R
GRAHAM 5SSW      N/A     72  61  67 NW12      30.10S
GUTHRIE 10WSW    N/A     80  62  54 N7        30.02S
HASKELL 1NW      N/A     78  60  52 S9        29.99S
JAYTON 1SSE      N/A     77  61  58 SW7       30.02R
KNOX CITY 3NW    N/A     78  62  58 S7        29.99R
LK A HENRY 1NW   N/A     78  59  51 W8        30.05S
NORTHFIELD 1S    N/A     71  70  97 NE3       30.04S
PADUCAH 10SW     N/A     72  69  90 N6        30.03F
POST 1NE         N/A     73  61  65 NW6       30.07F
RRING SPRGS 3N   N/A     69  67  91 N8        30.06S
SEYMOUR 3NW      N/A     77  64  63 SE6       29.98R
SPUR 1W          N/A     75  62  63 NW3       30.03S
WEINERT 2NNE     N/A     78  63  61 S7        29.99R
WHITE RVR 6NE    N/A     72  62  70 NW12      30.06S
$$

TXZ052-054-060>062-072-078-127-140-154-169-301100-
TEXAS TECH WEST TEXAS MESONET/PERMIAN BASIN/
CONCHO VALLEY/BIG COUNTRY/EDWARDS PLATEAU

CITY           SKY/WX    TMP DP  RH WIND       PRES   REMARKS
COYANOSA 2N      N/A     72  64  77 E5        30.06R
JUNCTION 1SSW    N/A     75  69  80 SE3       30.05R
MERTZON 3NNE     N/A     76  67  72 S9        30.07S
SAN ANGELO 7NW   N/A     75  63  65 S1        30.05S
STRLNG CT 4WSW   N/A     75  64  67 S10       30.07S
ST LAWRNCE 5SW   N/A     72  62  69 W8        30.08S
SWEETWATR 11SW   N/A     75  65  70 S10       30.08S
WALL 1E          N/A     76  65  68 S6        30.06R
$$

TXZ055-058-074-075-080-082-301100-
TEXAS TECH WEST TEXAS MESONET/FAR WEST/SOUTHWEST MOUNTAINS/TRANS PECOS

CITY           SKY/WX    TMP DP  RH WIND       PRES   REMARKS
PRSMN GAP BBNP   N/A     74  63  69 NE7       30.06S
GUADLPE MTN NP   N/A     65  55  69 W1        30.22F
$$




USA.gov is the U.S. government's official web portal to all federal, state and local government web resources and services.